Location: New Mesquite
(33.1168°N, 96.4336°W)
Time: 06:37:37
(UTC+00:00)

Cosmos 1538 Rocket - Pass Details

Date: 04 July 2022
Orbit: 752 x 791 km, 74.0° (Epoch: 11 August)

Event Time Altitude Azimuth Distance (km) Brightness Sun altitude
Rises 09:25:05 0° 143° (SE) 3,233 7.1 -20.2°
Reaches altitude 10° 09:29:49 10° 104° (ESE) 2,301 6.8 -19.5°
Maximum altitude 09:30:43 10° 94° (E) 2,270 7.0 -19.4°
Drops below altitude 10° 09:31:37 10° 84° (E) 2,299 7.2 -19.3°
Sets 09:36:19 0° 46° (NE) 3,221 9.0 -18.6°
